DateTimeUTC,F1_A11,F1_S11,BsB_S11,BsG_S11,BsR_S11,BbsB_S11,BbsG_S11,BbsR_S11,BaB_A11,BaG_A11,BaR_A11,Tu_S11,T_S11,Uu_S11,U_S11,P_S11,T1_A11
2021-08-08T19:00:00Z,00000200,20000000,,,,,,,-000.26,-000.20,-000.16,19.6,26.2,07.2,04.8,0668.4,31.1
2021-08-08T19:01:00Z,00000200,20000000,,,,,,,0000.39,0000.16,0000.03,19.6,26.2,07.2,04.8,0668.4,31.1
2021-08-08T19:02:00Z,00000200,20000000,,,,,,,-000.37,-000.02,0000.15,19.6,26.2,07.2,04.8,0668.4,31.1
2021-08-08T19:03:00Z,00000200,60000000,,,,,,,0000.10,-000.06,-000.12,19.6,26.2,07.2,04.8,0668.4,31.1
2021-08-08T19:04:00Z,00000200,40000000,0002.56,0001.54,0001.06,0000.21,0000.43,0000.24,0000.55,0000.68,0000.79,19.7,26.0,07.1,04.9,0669.3,31.1
2021-08-08T19:05:00Z,00000200,00000000,0002.58,0001.97,0001.09,0000.13,-000.03,0000.08,0000.98,0000.82,0000.52,19.7,26.0,07.2,04.9,0669.4,31.1
2021-08-08T19:06:00Z,00000200,00000000,0002.64,0001.80,0001.23,0000.45,0000.31,0000.08,0000.15,0000.03,-000.11,19.7,26.0,07.2,04.9,0669.4,31.1
2021-08-08T19:07:00Z,00000200,00000000,0002.85,0001.59,0000.93,0000.62,0000.00,0000.40,0000.50,0000.91,0000.45,19.7,26.0,07.3,05.0,0669.4,31.1
2021-08-08T19:08:00Z,00000200,00000000,0001.97,0001.67,0000.98,0000.24,0000.41,0000.33,0000.51,-000.02,0000.46,19.7,26.0,07.3,05.0,0669.4,31.1
2021-08-08T19:09:00Z,00000200,00000000,0002.17,0001.82,0001.09,0000.57,0000.34,0000.58,0000.44,0000.57,0000.50,19.7,25.9,07.2,05.0,0669.4,31.1
2021-08-08T19:10:00Z,00000200,00000000,0002.60,0001.71,0001.30,0000.25,0000.32,0000.22,0000.65,0000.36,0000.28,19.7,25.9,07.3,05.0,0669.4,31.1
2021-08-08T19:11:00Z,00000200,00000000,0002.62,0001.61,0001.23,0000.31,0000.23,0000.49,0000.37,0000.58,0000.48,19.7,25.9,07.3,05.0,0669.4,31.1
2021-08-08T19:12:00Z,00000200,00000000,0002.39,0001.71,0001.31,0000.47,0000.14,0000.21,0000.67,0000.49,0000.37,19.7,25.9,07.3,05.0,0669.4,31.1
2021-08-08T19:13:00Z,00000200,00000000,0001.69,0001.34,0001.22,0000.29,0000.10,0000.43,0000.48,0000.62,0000.74,19.7,25.9,07.3,05.0,0669.4,31.1
2021-08-08T19:14:00Z,00000200,00000000,0002.25,0001.57,0000.99,0000.69,0000.32,0000.22,0000.34,0000.32,-000.26,19.7,25.9,07.4,05.1,0669.4,31.1
2021-08-08T19:15:00Z,00000200,00000000,0002.17,0001.45,0001.07,0000.04,0000.28,0000.27,0000.62,0000.33,0000.69,19.7,25.9,07.5,05.1,0669.4,31.1
2021-08-08T19:16:00Z,00000200,00000000,0002.23,0001.58,0001.18,0000.35,0000.28,0000.36,0000.25,0000.45,0000.15,19.8,25.9,07.5,05.2,0669.4,31.1
2021-08-08T19:17:00Z,00000200,00000000,0002.33,0001.24,0000.77,0000.71,0000.13,0000.05,0000.46,0000.70,0000.69,19.8,25.9,07.4,05.1,0669.4,31.1
2021-08-08T19:18:00Z,00000200,00000000,0001.94,0001.46,0000.73,0000.10,-000.17,0000.22,0000.61,0000.46,0000.57,19.7,25.9,07.4,05.1,0669.4,31.1
2021-08-08T19:19:00Z,00000200,00000000,0001.34,0001.38,0001.23,-000.59,0000.17,0000.31,0000.13,0000.14,-000.10,19.7,25.9,07.5,05.2,0669.4,31.1
2021-08-08T19:20:00Z,00000200,00000000,0001.82,0001.58,0001.21,0000.69,0000.22,0000.20,0000.71,0000.70,0000.24,19.7,25.9,07.5,05.2,0669.3,31.1
2021-08-08T19:21:00Z,00000200,00000000,0001.89,0001.29,0000.79,0000.70,0000.19,-000.07,0000.02,-000.11,0000.40,19.7,25.9,07.4,05.1,0669.4,31.1
2021-08-08T19:22:00Z,00000200,00000000,0002.01,0001.05,0000.75,-000.06,-000.10,0000.12,0000.72,0000.59,0000.44,19.7,25.9,07.4,05.1,0669.3,31.1
2021-08-08T19:23:00Z,00000200,00000000,0001.55,0001.41,0001.15,0000.14,0000.29,0000.05,0000.28,0000.52,0000.46,19.7,25.9,07.5,05.2,0669.3,31.1
2021-08-08T19:24:00Z,00000200,00000000,0001.12,0001.17,0000.85,0000.21,0000.26,0000.05,0000.09,0000.06,-000.18,19.7,25.9,07.5,05.1,0669.3,31.1
2021-08-08T19:25:00Z,00000200,00000000,0002.94,0000.92,0000.92,0000.14,0000.09,0000.10,0000.60,0000.23,0000.41,19.7,25.9,07.6,05.2,0669.3,31.1
2021-08-08T19:26:00Z,00000200,00000000,0001.86,0001.02,0000.71,0000.41,0000.06,-000.21,0000.11,0000.26,0000.25,19.8,25.9,07.4,05.1,0669.3,31.1
2021-08-08T19:27:00Z,00000200,00000000,0001.87,0000.84,0000.84,0001.10,0000.05,0000.17,0000.41,0000.40,0000.27,19.8,25.9,07.4,05.1,0669.3,31.1
2021-08-08T19:28:00Z,00000200,00000000,0001.58,0001.29,0001.07,0000.71,0000.12,0000.24,0000.03,0000.32,0000.27,19.8,25.9,07.5,05.2,0669.4,31.1
2021-08-08T19:29:00Z,00000200,00000000,0001.52,0001.24,0001.13,-000.26,0000.05,0000.13,0000.43,0000.31,0000.05,19.8,25.9,07.4,05.1,0669.4,31.1
2021-08-08T19:30:00Z,00000200,00000000,0001.59,0000.78,0000.73,0000.31,0000.18,0000.04,0000.16,0000.49,0000.08,19.8,25.9,07.4,05.1,0669.4,31.1
2021-08-08T19:31:00Z,00000200,00000000,0001.48,0001.04,0000.88,0000.24,0000.15,0000.07,0000.82,0000.18,0000.73,19.8,25.9,07.5,05.2,0669.4,31.1
2021-08-08T19:32:00Z,00000200,00000000,0001.09,0001.05,0000.37,0000.44,0000.19,-000.04,0000.08,-000.02,-000.14,19.8,25.9,07.5,05.2,0669.3,31.1
2021-08-08T19:33:00Z,00000200,00000000,0001.10,0001.08,0000.21,0000.02,-000.02,0000.16,0000.24,0000.22,0000.10,19.7,25.9,07.5,05.2,0669.4,31.1
2021-08-08T19:34:00Z,00000200,00000000,0001.48,0000.75,0000.65,0000.37,0000.28,0000.28,0000.30,0000.51,0000.26,19.7,25.9,07.4,05.1,0669.3,31.1
2021-08-08T19:35:00Z,00000200,00000000,0001.08,0000.79,0000.60,0000.33,0000.12,-000.33,0000.19,-000.09,0000.19,19.7,25.9,07.3,05.1,0669.3,31.1
2021-08-08T19:36:00Z,00000200,00000000,0001.36,0001.19,0000.16,0000.40,0000.12,0000.11,-000.11,0000.06,0000.45,19.7,25.9,07.4,05.1,0669.3,31.1
2021-08-08T19:37:00Z,00000200,00000000,0001.19,0000.96,0000.78,-000.17,0000.18,0000.21,0000.24,0000.14,0000.01,19.7,25.9,07.4,05.1,0669.3,31.1
2021-08-08T19:38:00Z,00000200,00000000,0001.07,0000.93,0000.47,0000.02,-000.25,-000.17,0000.63,0000.74,0000.32,19.7,25.9,07.4,05.1,0669.3,31.1
2021-08-08T19:39:00Z,00000200,00000000,0001.22,0000.80,0000.73,-000.55,0000.03,0000.12,0000.28,0000.17,0000.29,19.7,25.9,07.4,05.1,0669.2,31.1
2021-08-08T19:40:00Z,00000200,00000000,0001.25,0000.79,0000.43,0000.17,-000.19,0000.04,0000.19,0000.23,0000.10,19.8,25.9,07.5,05.2,0669.3,31.1
2021-08-08T19:41:00Z,00000200,00000000,0001.06,0000.86,0000.36,0000.50,-000.20,0000.13,0000.37,0000.59,0000.10,19.8,25.9,07.5,05.2,0669.3,31.1
2021-08-08T19:42:00Z,00000200,00000000,0001.49,0000.93,0000.79,0000.46,0000.01,0000.28,0000.23,-000.01,0000.44,19.7,25.9,07.6,05.2,0669.3,31.1
2021-08-08T19:43:00Z,00000200,00000000,0001.51,0000.74,0000.58,-000.31,0000.15,-000.02,0000.14,0000.47,0000.35,19.8,25.9,07.7,05.3,0669.3,31.1
2021-08-08T19:44:00Z,00000200,00000000,0001.31,0000.57,0000.51,0000.26,-000.05,-000.12,0000.17,0000.09,-000.06,19.7,25.9,07.6,05.3,0669.2,31.1
2021-08-08T19:45:00Z,00000200,00000000,0001.07,0000.99,0000.57,0000.34,0000.12,0000.05,0000.58,0000.09,0000.47,19.7,25.9,07.5,05.2,0669.3,31.1
2021-08-08T19:46:00Z,00000200,00000000,0000.99,0000.74,0000.69,0000.78,0000.40,0000.24,0000.05,0000.38,0000.41,19.7,25.9,07.6,05.2,0669.4,31.1
2021-08-08T19:47:00Z,00000200,00000000,0000.72,0000.61,0000.76,0001.15,0000.17,0000.02,0000.41,0000.55,-000.03,19.7,25.9,07.7,05.3,0669.4,31.1
2021-08-08T19:48:00Z,00000200,00000000,0001.03,0000.79,0000.63,0000.23,0000.39,0000.37,0000.14,-000.18,0000.11,19.7,25.9,07.8,05.3,0669.3,31.1
2021-08-08T19:49:00Z,00000200,00000000,0001.02,0000.91,0000.74,0000.65,0000.05,0000.25,0000.23,0000.26,0000.39,19.7,25.9,07.6,05.2,0669.3,31.1
2021-08-08T19:50:00Z,00000200,00000000,0001.19,0000.83,0000.17,0000.08,-000.14,-000.20,0000.18,0000.12,-000.17,19.7,25.8,07.7,05.3,0669.3,31.1
2021-08-08T19:51:00Z,00000200,00000000,0000.88,0000.74,0000.65,0000.19,0000.02,0000.34,0000.01,0000.27,0000.52,19.7,25.8,07.6,05.2,0669.3,31.1
2021-08-08T19:52:00Z,00000200,00000000,0000.66,0000.87,0000.48,0000.10,0000.04,-000.17,0000.15,-000.09,-000.20,19.7,25.8,07.7,05.3,0669.3,31.1
2021-08-08T19:53:00Z,00000200,00000000,0000.53,0000.49,0000.28,-000.41,-000.02,0000.01,0000.31,0000.53,0000.44,19.7,25.8,07.7,05.3,0669.3,31.1
2021-08-08T19:54:00Z,00000200,00000000,0000.65,0000.62,0000.97,0000.58,-000.04,0000.19,0000.19,0000.65,0000.28,19.7,25.8,07.7,05.3,0669.3,31.1
2021-08-08T19:55:00Z,00000200,00000000,0000.45,0000.31,0000.59,-000.60,0000.09,0000.36,0000.13,-000.29,0000.02,19.7,25.8,07.7,05.3,0669.3,31.1
2021-08-08T19:56:00Z,00000200,00000000,0000.84,0000.85,0000.41,0000.30,0000.30,0000.44,0000.40,-000.37,-000.03,19.7,25.8,07.6,05.2,0669.2,31.1
2021-08-08T19:57:00Z,00000200,40000000,,,,,,,-000.02,0000.19,0000.09,19.7,25.8,07.2,05.0,0669.3,31.1
2021-08-08T19:58:00Z,00000200,60000000,,,,,,,-000.11,0000.19,0000.35,19.4,25.9,07.4,05.0,0668.5,31.1
2021-08-08T19:59:00Z,00000200,20000000,,,,,,,-000.04,-000.18,-000.46,19.4,26.0,07.5,05.0,0668.4,31.1
